Zurück zum Katalog

STARLINK-31621

AktivKommunikationVLEO
NORAD 59465·PAYLOAD·🇺🇸 United States

Gestartet Apr 10, 2024 von Cape Canaveral Space Force Station

Loading…

Nächste Überflüge (nächste 24 Stunden)

TLE

AktuellSource: CelesTrak SupGP

Epoche: Sep 15, 2026, 02:46 UTC

1 59465C 24068L   26258.11576389 -.00025278  00000+0 -91546-3 0  2583
2 59465  43.0043  44.8635 0001512 270.3506  19.0566 15.27595134    17

Verfolge STARLINK-31621 in Echtzeit mit AllMySat

Download on the App Store